Torna al catalogo

LEMUR-2 GRAM-E-SUE

AttivoMeteoSSO
NORAD 67370·PAYLOAD·🇺🇸 United States

Lanciato Jan 11, 2026 da Vandenberg Space Force Base

Loading…

Prossimi Passaggi (prossime 24 ore)

TLE

AggiornatoSource: Space-Track

Epoca: Sep 14, 2026, 10:19 UTC

1 67370U 26004H   26257.42996250  .00003109  00000-0  33707-3 0  9990
2 67370  97.8037 254.6323 0006238 198.4408 161.6584 14.88895568 36571

Traccia LEMUR-2 GRAM-E-SUE in tempo reale con AllMySat

Download on the App Store